EN

Hourly Weather Bükkzsérc

Today, 8 May, Saturday

Time Temperature Precipitation Wind Pressure Humidity
00:00 +4°C° 0 mm 3 mps 732 mmHg 85%
01:00 +4°C° 0 mm 2 mps 733 mmHg 84%
02:00 +3°C° 0 mm 2 mps 733 mmHg 85%
03:00 +2°C° 0 mm 2 mps 734 mmHg 86%
04:00 +2°C° 0 mm 2 mps 734 mmHg 87%
05:00 +3°C° 0 mm 2 mps 735 mmHg 80%
06:00 +5°C° 0 mm 2 mps 736 mmHg 73%
07:00 +6°C° 0 mm 2 mps 736 mmHg 66%
08:00 +8°C° 0 mm 2 mps 737 mmHg 59%
09:00 +11°C° 0 mm 1 mps 737 mmHg 52%
10:00 +12°C° 0 mm 1 mps 737 mmHg 46%
11:00 +13°C° 0 mm 2 mps 737 mmHg 43%
12:00 +14°C° 0 mm 2 mps 737 mmHg 40%
13:00 +15°C° 0 mm 2 mps 737 mmHg 38%
14:00 +14°C° 0 mm 3 mps 736 mmHg 39%
15:00 +14°C° 0 mm 3 mps 736 mmHg 40%
16:00 +14°C° 0 mm 3 mps 736 mmHg 41%
17:00 +12°C° 0 mm 3 mps 737 mmHg 50%
18:00 +10°C° 0 mm 3 mps 737 mmHg 58%
19:00 +8°C° 0 mm 3 mps 737 mmHg 67%
20:00 +7°C° 0 mm 2 mps 737 mmHg 69%
21:00 +6°C° 0 mm 2 mps 738 mmHg 71%
22:00 +6°C° 0 mm 1 mps 738 mmHg 73%
23:00 +6°C° 0 mm 1 mps 738 mmHg 73%

Tomorrow, 9 May, Sunday

Time Temperature Precipitation Wind Pressure Humidity
00:00 +5°C° 0 mm 1 mps 738 mmHg 74%
01:00 +5°C° 0 mm 1 mps 738 mmHg 75%
02:00 +5°C° 0 mm 1 mps 739 mmHg 75%
03:00 +3°C° 0 mm 0 mps 739 mmHg 76%
04:00 +3°C° 0 mm 0 mps 739 mmHg 76%
05:00 +6°C° 0 mm 1 mps 739 mmHg 71%
06:00 +8°C° 0 mm 1 mps 739 mmHg 66%
07:00 +10°C° 0 mm 1 mps 740 mmHg 61%
08:00 +10°C° 0 mm 2 mps 740 mmHg 57%
09:00 +13°C° 0 mm 2 mps 740 mmHg 53%
10:00 +14°C° 0 mm 3 mps 740 mmHg 48%
11:00 +14°C° 0 mm 3 mps 740 mmHg 47%
12:00 +16°C° 0 mm 3 mps 739 mmHg 47%
13:00 +17°C° 0 mm 4 mps 739 mmHg 46%
14:00 +17°C° 0 mm 4 mps 739 mmHg 48%
15:00 +17°C° 0 mm 3 mps 739 mmHg 50%
16:00 +17°C° 0 mm 3 mps 738 mmHg 52%
17:00 +14°C° 0 mm 3 mps 738 mmHg 61%
18:00 +13°C° 0 mm 2 mps 738 mmHg 70%
19:00 +11°C° 0 mm 1 mps 738 mmHg 79%
20:00 +11°C° 0 mm 1 mps 738 mmHg 80%
21:00 +10°C° 0 mm 1 mps 738 mmHg 81%
22:00 +9°C° 0 mm 1 mps 738 mmHg 81%
23:00 +9°C° 0 mm 1 mps 738 mmHg 82%

Day after tomorrow, 10 May, Monday

Time Temperature Precipitation Wind Pressure Humidity
00:00 +8°C° 0 mm 1 mps 737 mmHg 82%
01:00 +8°C° 0 mm 1 mps 737 mmHg 83%
02:00 +8°C° 0 mm 1 mps 737 mmHg 84%
03:00 +7°C° 0 mm 1 mps 737 mmHg 85%
04:00 +7°C° 0 mm 1 mps 737 mmHg 86%
05:00 +9°C° 0 mm 1 mps 737 mmHg 80%
06:00 +10°C° 0 mm 2 mps 737 mmHg 73%
07:00 +12°C° 0 mm 2 mps 737 mmHg 67%
08:00 +14°C° 0 mm 2 mps 737 mmHg 63%
09:00 +16°C° 0 mm 3 mps 737 mmHg 58%
10:00 +18°C° 0 mm 4 mps 737 mmHg 54%
11:00 +19°C° 0 mm 4 mps 737 mmHg 53%
12:00 +20°C° 0 mm 4 mps 737 mmHg 53%
13:00 +21°C° 0 mm 5 mps 736 mmHg 52%
14:00 +21°C° 0 mm 4 mps 736 mmHg 55%
15:00 +21°C° 0 mm 4 mps 736 mmHg 57%
16:00 +21°C° 0 mm 4 mps 736 mmHg 60%
17:00 +19°C° 0 mm 3 mps 735 mmHg 68%
18:00 +17°C° 0 mm 3 mps 735 mmHg 76%
19:00 +15°C° 0 mm 2 mps 735 mmHg 85%
20:00 +14°C° 0 mm 2 mps 735 mmHg 86%
21:00 +14°C° 0 mm 1 mps 735 mmHg 88%
22:00 +13°C° 0 mm 1 mps 735 mmHg 90%
23:00 +12°C° 0 mm 1 mps 735 mmHg 90%

11 May, Tuesday

Time Temperature Precipitation Wind Pressure Humidity
00:00 +12°C° 0 mm 1 mps 735 mmHg 89%
01:00 +11°C° 0 mm 1 mps 735 mmHg 89%
02:00 +11°C° 0 mm 1 mps 735 mmHg 87%
03:00 +10°C° 0 mm 1 mps 735 mmHg 85%
04:00 +10°C° 0 mm 1 mps 735 mmHg 84%
05:00 +12°C° 0 mm 1 mps 735 mmHg 78%
06:00 +14°C° 0 mm 1 mps 735 mmHg 72%
07:00 +14°C° 0 mm 0 mps 735 mmHg 67%
08:00 +18°C° 0 mm 1 mps 735 mmHg 63%
09:00 +20°C° 0 mm 1 mps 735 mmHg 59%
10:00 +20°C° 0 mm 2 mps 735 mmHg 56%
11:00 +21°C° 0 mm 2 mps 734 mmHg 55%
12:00 +22°C° 0 mm 3 mps 734 mmHg 54%
13:00 +24°C° 0 mm 3 mps 733 mmHg 53%
14:00 +24°C° 0 mm 3 mps 733 mmHg 55%
15:00 +24°C° 0 mm 3 mps 733 mmHg 56%
16:00 +24°C° 0 mm 3 mps 732 mmHg 57%
17:00 +21°C° 0 mm 2 mps 732 mmHg 66%
18:00 +20°C° 0 mm 1 mps 731 mmHg 75%
19:00 +18°C° 0 mm 1 mps 731 mmHg 84%
20:00 +16°C° 0 mm 1 mps 731 mmHg 85%
21:00 +16°C° 0 mm 1 mps 730 mmHg 86%
22:00 +15°C° 0 mm 1 mps 730 mmHg 88%
23:00 +14°C° 0 mm 1 mps 730 mmHg 89%

12 May, Wednesday

Time Temperature Precipitation Wind Pressure Humidity
00:00 +14°C° 0 mm 1 mps 730 mmHg 90%
01:00 +13°C° 0 mm 1 mps 729 mmHg 91%
02:00 +13°C° 0 mm 1 mps 729 mmHg 92%
03:00 +13°C° 0 mm 1 mps 729 mmHg 92%
04:00 +13°C° 0 mm 1 mps 728 mmHg 93%
05:00 +14°C° 0 mm 2 mps 728 mmHg 88%
06:00 +15°C° 0 mm 2 mps 728 mmHg 83%
07:00 +17°C° 0 mm 3 mps 728 mmHg 78%
08:00 +18°C° 0 mm 3 mps 727 mmHg 73%
09:00 +20°C° 0 mm 3 mps 727 mmHg 68%
10:00 +21°C° 0 mm 4 mps 727 mmHg 63%
11:00 +21°C° 0.2 mm 3 mps 726 mmHg 64%
12:00 +21°C° 0.2 mm 3 mps 726 mmHg 66%
13:00 +21°C° 0.2 mm 3 mps 726 mmHg 68%
14:00 +19°C° 0.5 mm 3 mps 726 mmHg 74%
15:00 +18°C° 0.5 mm 3 mps 726 mmHg 80%
16:00 +17°C° 0.5 mm 2 mps 725 mmHg 86%
17:00 +15°C° 0.5 mm 2 mps 725 mmHg 90%
18:00 +14°C° 0.5 mm 2 mps 725 mmHg 93%
19:00 +13°C° 0.5 mm 2 mps 725 mmHg 96%
20:00 +13°C° 0 mm 2 mps 725 mmHg 96%
21:00 +12°C° 0 mm 2 mps 725 mmHg 96%
22:00 +10°C° 0 mm 2 mps 725 mmHg 96%
23:00 +10°C° 0 mm 2 mps 725 mmHg 96%

13 May, Thursday

Time Temperature Precipitation Wind Pressure Humidity
00:00 +10°C° 0 mm 2 mps 725 mmHg 96%
01:00 +10°C° 0 mm 1 mps 725 mmHg 96%
02:00 +10°C° 0 mm 1 mps 725 mmHg 96%
03:00 +10°C° 0 mm 1 mps 725 mmHg 96%
04:00 +10°C° 0 mm 1 mps 725 mmHg 97%
05:00 +10°C° 0 mm 1 mps 725 mmHg 95%
06:00 +11°C° 0 mm 1 mps 725 mmHg 94%
07:00 +11°C° 0 mm 1 mps 725 mmHg 92%
08:00 +10°C° 0.1 mm 2 mps 725 mmHg 92%
09:00 +10°C° 0.1 mm 2 mps 725 mmHg 91%
10:00 +10°C° 0.1 mm 3 mps 725 mmHg 91%
11:00 +11°C° 0.1 mm 3 mps 725 mmHg 90%
12:00 +11°C° 0.1 mm 3 mps 725 mmHg 89%
13:00 +11°C° 0.1 mm 4 mps 725 mmHg 88%
14:00 +11°C° 0.1 mm 4 mps 725 mmHg 88%
15:00 +11°C° 0.1 mm 3 mps 725 mmHg 88%
16:00 +11°C° 0.1 mm 3 mps 725 mmHg 88%
17:00 +11°C° 0.1 mm 3 mps 725 mmHg 89%
18:00 +10°C° 0.1 mm 3 mps 725 mmHg 91%
19:00 +10°C° 0.1 mm 3 mps 725 mmHg 93%
20:00 +9°C° 0.1 mm 3 mps 726 mmHg 93%
21:00 +9°C° 0.1 mm 3 mps 726 mmHg 93%
22:00 +9°C° 0.1 mm 3 mps 726 mmHg 93%
23:00 +9°C° 0.2 mm 3 mps 726 mmHg 93%
Show more

We Need Your Consent

Meteoprog and our Service Providers may store and access personal data such as cookies, device identifiers or other similar technologies on your device and process such data to personalise content and ads, as well as provide social media features and to analyse the traffic.

  • Store and/or access information on your device

    Cookies, device identifiers or other information can be stored or accessed on your device for the purposes indicated above.

  • Personalised ads and content, ad and content measurement, audience insights, and products development

    Ads and content can be personalised based on a profile. More data can be added to better personalise ads and content. Ad and content performance can be measured. Insights about the audience who saw the ads and content can be derived. Such data can be used to develop or improve user’s experience, systems and software.

By clicking ‘I Agree’ you will allow the use of indicated cookies, device identifiers, web beacons or other similar technologies. Your settings can be changed in the browser on your device.

For certain purposes, legitimate interests may be relied on, rather than consent. You can read more about this in our Privacy and Cookie Policy.